OBJECT C

Basic Information
Catalog Number:
52155
Catalog Name:
OBJECT C
International ID:
2022-032C
Orbit Center:
EARTH
Object Status:
In Orbit
Launch Date:
2022-03-30 UTC
Country:
中国 (CN)
Orbital Information
Data Source: International Orbital Data AOE Orbital Data
Epoch Time: 2026-09-05T07:35:42+0800 2026-09-04T00:00:00+0800
Semi-major Axis: 6939.03km 6939.042km
Eccentricity: 0.0018758 0.0018847
Inclination: 97.583° 97.582°
Argument of Perigee: 261.424° 265.464°
RAAN: 291.424° 290.137°
Mean Anomaly: 98.486° 180.779°
Perigee: 547.876km 547.826km
Apogee: 573.91km 573.984km
Period: 95.876分钟 95.876分钟
Mean Motion: 15.019471 15.019432
Detailed Information
Launch Site:
JSC
Orbital Altitude:
LEO
Data Source:
AOE Working Group
Reference Frame:
TEME
Time System:
UTC
Epoch Type:
SGP4
2D Orbital Map
3D Orbital Map
Orbital Altitude Analysis
Orbital Inclination Analysis
Orbit Comprehensive Analysis Chart
View Comprehensive Chart